Location: St. Louis
(38.6270°N, 90.1994°W)
Time: 11:58:18
(UTC-06:00)

Altair - Pass Details

Date: 08 December 2021
Orbit: 1501 x 1683 km, 47.2° (Epoch: 25 January)

Event Time Altitude Azimuth Distance (km) Brightness Sun altitude
Rises 13:27:40 0° 222° (SW) 4,850 11.3 24.7°
Reaches altitude 10° 13:30:52 10° 220° (SW) 3,843 11.2 24.4°
Maximum altitude 13:40:28 65° 141° (SE) 1,705 8.3 23.6°
Drops below altitude 10° 13:49:44 10° 62° (ENE) 3,714 9.1 22.8°
Sets 13:52:46 0° 60° (ENE) 4,680 9.5 22.5°
